User: anonymous   Login
Location: Skalnate Pleso
(49.1889°N, 20.2450°E)
Time: 23:22:58
(UTC+01:00)
Language:

Cosmos 2219 Rocket - Orbit

View from above orbital plane
View from above orbital plane
View from above satellite
View from above satellite

Ground track
Ground track

The orbit data is extracted from the following two-line orbital elements,

1 22220U 92076B   20028.61425931 +.00000207 +00000-0 +12793-3 0  9999
2 22220 070.9981 208.0571 0015083 258.6865 163.5295 14.16450769405737
Epoch (UTC): 28 January 2020 14:44:32
Eccentricity: 0.0015083
inclination: 70.9981°
perigee height: 826 km
apogee height: 848 km
right ascension of ascending node: 208.0571°
argument of perigee: 258.6865°
revolutions per day: 14.16450769
mean anomaly at epoch: 163.5295°
orbit number at epoch: 40573

The dashed part of the orbit path shows where the satellite is in the earth's shadow,  

DLR